Regional Weather Roundup
Issued by NWS

Home | Current Version | Previous Version | Graphics & Text | Print | Product List | Glossary On
Versions: 1 2 3 4 5 6 7 8 9 10 11 12 13 14 15 16 17 18 19 20 21 22 23 24 25 26 27 28 29 30 31 32 33 34 35 36 37 38 39 40 41 42 43 44 45 46 47 48 49 50
104
ASUS43 KMPX 270901
RWRMN
WEATHER ROUNDUP FOR MINNESOTA
NATIONAL WEATHER SERVICE TWIN CITIES/CHANHASSEN MN
400 AM CDT MON MAR 27 2017


NOTE: "FAIR" INDICATES FEW OR NO CLOUDS BELOW 12,000 FEET WITH NO
SIGNIFICANT WEATHER AND/OR OBSTRUCTIONS TO VISIBILITY. N/A MEANS
CURRENT SKY AND/OR WEATHER CONDITIONS ARE NOT AVAILABLE.

MNZ060>063-068>070-271000-
   Twin Cities Metro

CITY           SKY/WX    TMP DP  RH WIND       PRES   REMARKS
TWIN CITIES    CLOUDY    38  33  82 N9        29.94R
ST PAUL        CLOUDY    38  35  89 N7        29.95S
CRYSTAL        CLOUDY    38  32  79 NW7       29.94R
BLAINE         CLOUDY    37  37 100 NW7       29.94S
LAKEVILLE      CLOUDY    37  37 100 NW6       29.94R FOG
EDEN PRAIRIE   CLOUDY    39  34  82 NW8       29.93R
SOUTH ST PAUL  CLOUDY    38  36  92 N7        29.93S
LAKE ELMO      CLOUDY    36  36 100 NW5       29.94S
$$
MNZ001>005-007-008-013>017-022>024-027-028-271000-
   Northwest Minnesota

CITY           SKY/WX    TMP DP  RH WIND       PRES   REMARKS
BEMIDJI        PTCLDY    34  32  94 CALM      29.94S
HALLOCK        FOG       30  28  93 W7        29.98R VSB 1/4 WCI  23
ROSEAU         CLEAR     30  25  80 NW3       29.96S HAZE
WARROAD        FOG       27  23  86 CALM      29.96S VSB 1
THIEF RVR FALL FOG       30  29  96 CALM      29.97S VSB 1/4
CROOKSTON      FOG       30  30 100 CALM      29.97S VSB 1/4
FOSSTON        PTCLDY    30  28  93 CALM      29.95F FOG
DETROIT LAKES  CLOUDY    37  36  93 CALM      29.95F
MOORHEAD       CLOUDY    34  32  93 CALM      29.96F FOG
PARK RAPIDS    CLOUDY    34  29  82 CALM      29.93S
MAHNOMEN       FOG       33  32  98 E3        29.94F VSB 3/4
$$
MNZ006-009>011-018-025>026-271000-
   North Central Minnesota

CITY           SKY/WX    TMP DP  RH WIND       PRES   REMARKS
BAUDETTE       PTCLDY    28  26  92 CALM      29.94S FOG
FLAG ISLAND    CLEAR     28  28 100 NW3       29.96R
INTL FALLS     CLEAR     27  24  89 CALM      29.94S
WASKISH        PTCLDY    28  27  93 CALM      29.95S
BIG FORK       PTCLDY    34  28  80 CALM      29.93F
LONGVILLE      CLOUDY    30  30 100 CALM      29.93F
GRAND RAPIDS   CLOUDY    34  31  88 CALM      29.94S
CRANE LAKE     MOCLDY    27  27 100 CALM      29.95S
ORR            PTCLDY    32  27  80 CALM      29.91S
COOK           CLOUDY    32  28  86 CALM      29.92F
WALKER         CLOUDY    33  30  88 CALM      29.94S
$$
MNZ012-019>021-037-271000-
   Northeast Minnesota

CITY           SKY/WX    TMP DP  RH WIND       PRES   REMARKS
DULUTH         FOG       31  30  96 NW3       29.92S VSB 3/4
ELY            MOCLDY    28  28 100 CALM      29.91S
HIBBING        CLOUDY    30  30 100 CALM      29.92R
EVELETH        PTCLDY    32  31  96 CALM      29.92S
DULUTH HARBOR  CLOUDY    34  32  93 CALM      29.96S
TWO HARBORS    MOCLDY    34  28  80 SW3       29.91S HAZE
SILVER BAY     CLOUDY    32  32 100 CALM      29.89F
GRAND MARAIS     N/A     32  31  96 W3        29.91F
G MARAIS ARPRT PTCLDY    28  27  93 CALM      29.87S
$$
MNZ029>031-032-039>041-046>048-054>057-064-271000-
   West Central Minnesota

CITY           SKY/WX    TMP DP  RH WIND       PRES   REMARKS
FERGUS FALLS   CLOUDY    37  37 100 CALM      29.98F
WHEATON        CLOUDY    34  32  93 E3        29.97F
MORRIS         CLOUDY    34  34 100 W5        29.95S FOG     WCI  30
ALEXANDRIA     CLOUDY    36  34  92 NW5       29.95S
ELBOW LAKE     CLOUDY    33  33 100 CALM      29.96F FOG
WADENA         CLOUDY    34  32  93 W5        29.94S WCI  30
GLENWOOD       CLOUDY    37  34  87 N5        29.95S
APPLETON       PTCLDY    36  34  93 CALM      29.96S
BENSON         CLOUDY    36  30  80 NW5       29.98R FOG
ORTONVILLE     MOCLDY    36  34  93 CALM      29.96S
MADISON        CLOUDY    37  37 100 W5        29.96S FOG
WILLMAR        FAIR      34  34 100 CALM      29.96S FOG
$$
MNZ033>034-036-042>043-049>051-058-059-271000-
   Central Minnesota

CITY           SKY/WX    TMP DP  RH WIND       PRES   REMARKS
ST CLOUD       CLOUDY    36  35  96 NW3       29.95R
SAUK CENTRE    FAIR      35  33  94 CALM      29.95S
PAYNESVILLE      N/A     33  33 100 CALM      29.95F
AITKIN         CLOUDY    36  30  80 CALM      29.92S
PINE RIVER     PTCLDY    30  28  93 CALM      29.97S
BRAINERD       CLOUDY    34  31  88 CALM      29.94S
STAPLES        CLOUDY    36  32  87 CALM      29.94S
LONG PRAIRIE   MOCLDY    32  32 100 CALM      29.95S
LITTLE FALLS   CLOUDY    32  32 100 CALM      29.95S
LITCHFIELD     CLOUDY    39  37  93 CALM      29.95F
BUFFALO        CLOUDY    37  36  94 CALM      29.96S
MAPLE LAKE     CLOUDY    37  37  99 CALM      29.97S FOG
HUTCHINSON     CLOUDY    38  37  97 NW5       29.97S
$$
MNZ037-044-045-052-053-271000-
   East Central Minnesota

CITY           SKY/WX    TMP DP  RH WIND       PRES   REMARKS
PRINCETON      CLOUDY    37  36  93 CALM      29.96R FOG
MORA           CLOUDY    34  32  93 CALM      29.97R FOG
CAMBRIDGE      CLOUDY    37  36  93 CALM      29.94R FOG
RUSH CITY      CLOUDY    35  33  94 CALM      29.94S
MOOSE LAKE     FOG       32  32 100 CALM      29.92R VSB 3/4
CLOQUET        MOCLDY    30  28  93 CALM      29.92S FOG
MCGREGOR       CLOUDY    32  32 100 CALM      29.93S
$$
MNZ071>073-080-081-089-090-097-098-271000-
   Southwest Minnesota

CITY           SKY/WX    TMP DP  RH WIND       PRES   REMARKS
MONTEVIDEO     CLOUDY    36  36 100 N6        29.97S
GRANITE FALLS  CLOUDY    38  37  93 W5        29.97S
CANBY          CLOUDY    37  36  96 CALM      29.97S
MARSHALL       CLOUDY    38  36  92 N5        29.96S
REDWOOD FALLS  CLOUDY    40  36  86 NW5       29.94F
OLIVIA         CLOUDY    36  34  93 CALM      29.95S
PIPESTONE      PTCLDY    34  30  86 CALM      29.94S FOG
WINDOM         MOCLDY    39  37  93 W5        29.94F
WORTHINGTON    CLOUDY    36  35  96 W6        29.95F
JACKSON        CLOUDY    37  37 100 CALM      29.95S
TRACY          CLOUDY    40  38  91 N3        29.95F
SLAYTON        CLOUDY    36  35  95 NW5       29.95F
$$
MNZ065>067-074>077-082>085-091>093-271000-
   South Central Minnesota

CITY           SKY/WX    TMP DP  RH WIND       PRES   REMARKS
MANKATO        CLOUDY    38  36  92 NW6       29.95R
NEW ULM        CLOUDY    37  36  93 NW5       29.95S
ST JAMES       CLOUDY    37  37 100 CALM      29.96R
FAIRMONT       CLOUDY    39  37  92 NW8       29.95
GLENCOE        CLOUDY    38  38 100 NW5       29.95S
FARIBAULT      CLOUDY    37  37 100 NW5       29.93S FOG
OWATONNA       FOG       37  37 100 CALM      29.93R VSB 3/4
WASECA         CLOUDY    36  36 100 NW5       29.95R FOG
ALBERT LEA     CLOUDY    37  37 100 NW3       29.93R FOG
$$
MNZ078>079-086>088-094>096-271000-
   Southeast Minnesota

CITY           SKY/WX    TMP DP  RH WIND       PRES   REMARKS
ROCHESTER      FOG       38  38 100 NW6       29.91R VSB 1
RED WING       CLOUDY    39  37  93 CALM      29.91F
STANTON        CLOUDY    38  37  93 NW3       29.92R FOG
DODGE CENTER   FOG       37  37 100 NW5       29.91R VSB 1
WINONA         CLOUDY    41  37  87 CALM      29.92S FOG
AUSTIN         FOG       39  37  93 NW5       29.92R VSB 3/4
PRESTON        CLOUDY    38  37  97 N3        29.91R FOG
$$
ABBREVIATIONS USED IN REMARKS
   TC - TEMPERATURES IN CELSIUS
  WCI - WIND CHILL INDEX
   HX - HEAT INDEX
  VSB - VISIBILITY
$$




USA.gov is the U.S. government's official web portal to all federal, state and local government web resources and services.